7 * 24
多渠道服务支持
STARLINK-36941(NORAD编号67991)是SpaceX星链星座中的一颗通信卫星,属于星链第二代卫星组网的组成部分,旨在近地轨道提供全球覆盖的宽带互联网服务。星链卫星搭载先进的相控阵天线与激光星间链路,可实现高速低延迟的数据传输,配备氩气离子推进系统支持轨道机动与主动离轨,采用双太阳能电池阵供电,保障可靠性与可报废性。作为星链大规模组网的一员,它延续了星链星座的技术设计,服务于全球偏远地区网络覆盖、应急通信等场景,目前在预定近地轨道正常运行。
美国
(US)
| 数据来源 | 国际轨道数据 |
| 星历时间: | 2026-07-27T16:49:28+0800 17小时前 查看轨道信息 |
| 半长轴: | 6861.117km |
| 偏心率: | 0.0002279 |
| 轨道倾角: | 43.002° |
| 近地点辐角 | 276.937° |
| 升交点赤经 | 340.278° |
| 平近点角 | 83.122° |
| 近地点: | 481.416km |
| 远地点: | 484.544km |
| 周期: | 94.265分钟 |
| 每日圈数: | 15.276032 |